FW0727 Weather Reports


time (UTC)temp
C
wind
direction
speed
KPH
gust
KPH
rain 1hr
cm
rain 24hr
cm
rain mn
cm
humidity
%
barometer
mb
20260504202701 13 0.0 0.0 0.00 0.00 0.00 48 1014.4
20260504202116 13 0.0 0.0 0.00 0.00 0.00 47 1014.4
20260504201531 13 0.0 0.0 0.00 0.00 0.00 47 1014.4
20260504200947 13 0.0 0.0 0.00 0.00 0.00 47 1014.4
20260504200403 13 0.0 0.0 0.00 0.00 0.00 47 1014.4
20260504195809 13 0.0 0.0 0.00 0.00 0.00 47 1014.4
20260504195224 13 0.0 0.0 0.00 0.00 0.00 46 1014.4
20260504194640 14 0.0 0.0 0.00 0.00 0.00 46 1014.4
20260504194054 13 0.0 0.0 0.00 0.00 0.00 45 1014.5
20260504193510 14 0.0 0.0 0.00 0.00 0.00 45 1014.5
20260504192925 14 0.0 0.0 0.00 0.00 0.00 45 1014.5
20260504192340 14 0.0 0.0 0.00 0.00 0.00 45 1014.5
20260504191756 15 0.0 0.0 0.00 0.00 0.00 44 1014.5
20260504191211 14 0.0 0.0 0.00 0.00 0.00 44 1014.5
20260504190626 15 0.0 0.0 0.00 0.00 0.00 44 1014.4
20260504190041 15 0.0 0.0 0.00 0.00 0.00 43 1014.4
20260504185456 15 0.0 0.0 0.00 0.00 0.00 43 1014.3
20260504184912 15 0.0 0.0 0.00 0.00 0.00 42 1014.3
20260504184326 15 0.0 0.0 0.00 0.00 0.00 42 1014.3
20260504183741 16 0.0 0.0 0.00 0.00 0.00 42 1014.3
20260504183157 16 0.0 0.0 0.00 0.00 0.00 42 1014.2
20260504182612 16 0.0 0.0 0.00 0.00 0.00 41 1014.1
20260504182026 16 0.0 0.0 0.00 0.00 0.00 41 1014.1
20260504181441 16 0.0 0.0 0.00 0.00 0.00 41 1014.0
20260504180328 16 0.0 0.0 0.00 0.00 0.00 40 1013.9
20260504175743 17 0.0 0.0 0.00 0.00 0.00 40 1013.8
20260504175159 17 0.0 0.0 0.00 0.00 0.00 39 1013.7
20260504174614 17 0.0 0.0 0.00 0.00 0.00 39 1013.6
20260504174029 17 0.0 0.0 0.00 0.00 0.00 39 1013.5
20260504173444 17 0.0 0.0 0.00 0.00 0.00 39 1013.4
20260504172854 17 0.0 0.0 0.00 0.00 0.00 38 1013.3
20260504172310 17 0.0 0.0 0.00 0.00 0.00 38 1013.3
20260504171725 18 0.0 0.0 0.00 0.00 0.00 38 1013.3
20260504171140 18 0.0 0.0 0.00 0.00 0.00 38 1013.3
20260504170556 18 0.0 0.0 0.00 0.00 0.00 37 1013.3
20260504160243 20 0.0 0.0 0.00 0.00 0.00 34 1012.9
20260504151045 21 0.0 0.0 0.00 0.00 0.00 32 1012.8
20260504150500 20 0.0 0.0 0.00 0.00 0.00 33 1012.8
20260504141316 21 0.0 0.0 0.00 0.00 0.00 31 1012.8
20260504140732 21 0.0 0.0 0.00 0.00 0.00 31 1012.9
20260504140147 21 0.0 0.0 0.00 0.00 0.00 31 1012.9
20260504130406 22 0.0 0.0 0.00 0.00 0.00 29 1013.0
20260504110241 21 0.0 0.0 0.00 0.00 0.00 28 1014.1
20260504100501 21 0.0 0.0 0.00 0.00 0.00 27 1014.4
20260504081521 21 0.0 0.0 0.00 0.00 0.00 27 1014.6
20260504080936 21 0.0 0.0 0.00 0.00 0.00 29 1014.7
20260504080342 21 0.0 0.0 0.00 0.00 0.00 30 1014.7
20260504060227 15 0.0 0.0 0.00 0.00 0.00 38 1015.3
20260504050456 10 0.0 0.0 0.00 0.00 0.00 45 1015.7
20260504045911 10 0.0 0.0 0.00 0.00 0.00 45 1015.7
20260504045327 9 0.0 0.0 0.00 0.00 0.00 46 1015.8
20260504044742 8 0.0 0.0 0.00 0.00 0.00 47 1015.8
20260504044157 8 0.0 0.0 0.00 0.00 0.00 47 1015.9
20260504043612 8 0.0 0.0 0.00 0.00 0.00 48 1015.9
20260504043027 7 0.0 0.0 0.00 0.00 0.00 49 1015.8
20260504042442 7 0.0 0.0 0.00 0.00 0.00 49 1015.9
20260504041857 6 0.0 0.0 0.00 0.00 0.00 50 1015.9
20260504041311 6 0.0 0.0 0.00 0.00 0.00 50 1016.0
20260504040726 6 0.0 0.0 0.00 0.00 0.00 50 1016.0
20260504040141 5 0.0 0.0 0.00 0.00 0.00 51 1016.1
20260504035556 5 0.0 0.0 0.00 0.00 0.00 51 1016.0
20260504035012 5 0.0 0.0 0.00 0.00 0.00 51 1016.1
20260504034427 5 0.0 0.0 0.00 0.00 0.00 51 1016.1
20260504033843 5 0.0 0.0 0.00 0.00 0.00 52 1016.1
20260504033258 5 0.0 0.0 0.00 0.00 0.00 51 1016.1
20260504032714 5 0.0 0.0 0.00 0.00 0.00 51 1016.2
20260504032129 5 0.0 0.0 0.00 0.00 0.00 51 1016.2
20260504031544 5 0.0 0.0 0.00 0.00 0.00 51 1016.2
20260504031000 5 0.0 0.0 0.00 0.00 0.00 52 1016.3
20260504030416 4 0.0 0.0 0.00 0.00 0.00 51 1016.3
20260504025830 4 0.0 0.0 0.00 0.00 0.00 51 1016.3
20260504025246 4 0.0 0.0 0.00 0.00 0.00 51 1016.4
20260504024703 4 0.0 0.0 0.00 0.00 0.00 51 1016.4
20260504024109 4 0.0 0.0 0.00 0.00 0.00 51 1016.5
20260504023523 4 0.0 0.0 0.00 0.00 0.00 51 1016.5
20260504022939 4 0.0 0.0 0.00 0.00 0.00 51 1016.5
20260504022354 4 0.0 0.0 0.00 0.00 0.00 51 1016.5
20260504021809 4 0.0 0.0 0.00 0.00 0.00 51 1016.6
20260504021224 4 0.0 0.0 0.00 0.00 0.00 51 1016.6
20260504020640 4 0.0 0.0 0.00 0.00 0.00 50 1016.7
20260504020056 4 0.0 0.0 0.00 0.00 0.00 51 1016.7
20260504015511 4 0.0 0.0 0.00 0.00 0.00 50 1016.7
20260504014927 4 0.0 0.0 0.00 0.00 0.00 51 1016.8
20260504014342 4 0.0 0.0 0.00 0.00 0.00 50 1016.8
20260504013758 4 0.0 0.0 0.00 0.00 0.00 50 1017.0
20260504013214 4 0.0 0.0 0.00 0.00 0.00 51 1016.9
20260504012629 4 0.0 0.0 0.00 0.00 0.00 50 1016.9
20260504012044 4 0.0 0.0 0.00 0.00 0.00 50 1017.0
20260504011501 4 0.0 0.0 0.00 0.00 0.00 50 1017.0
20260504010908 5 0.0 0.0 0.00 0.00 0.00 50 1017.1
20260504010323 4 0.0 0.0 0.00 0.00 0.00 50 1017.1
20260504005739 5 0.0 0.0 0.00 0.00 0.00 49 1017.1
20260504005154 4 0.0 0.0 0.00 0.00 0.00 49 1017.1
20260504004610 5 0.0 0.0 0.00 0.00 0.00 49 1017.2
20260504004026 5 0.0 0.0 0.00 0.00 0.00 49 1017.1
20260504003441 5 0.0 0.0 0.00 0.00 0.00 49 1017.1
20260504002856 5 0.0 0.0 0.00 0.00 0.00 49 1017.1
20260504002311 4 0.0 0.0 0.00 0.00 0.00 49 1017.1
20260504001727 5 0.0 0.0 0.00 0.00 0.00 49 1017.0
20260504001143 5 0.0 0.0 0.00 0.00 0.00 49 1017.0
20260504000558 5 0.0 0.0 0.00 0.00 0.00 49 1017.0
20260504000013 5 0.0 0.0 0.00 0.00 0.00 49 1017.1
20260503235425 5 0.0 0.0 0.00 0.00 0.00 48 1017.2
20260503234833 5 0.0 0.0 0.00 0.00 0.00 48 1017.2
20260503234249 5 0.0 0.0 0.00 0.00 0.00 48 1017.2
20260503233705 5 0.0 0.0 0.00 0.00 0.00 48 1017.2
20260503232551 5 0.0 0.0 0.00 0.00 0.00 48 1017.3
20260503232007 5 0.0 0.0 0.00 0.00 0.00 48 1017.3
20260503231423 5 0.0 0.0 0.00 0.00 0.00 47 1017.4
20260503230838 5 0.0 0.0 0.00 0.00 0.00 47 1017.4
20260503230254 5 0.0 0.0 0.00 0.00 0.00 47 1017.4
20260503225710 5 0.0 0.0 0.00 0.00 0.00 47 1017.5
20260503225117 5 0.0 0.0 0.00 0.00 0.00 47 1017.5
20260503224533 5 0.0 0.0 0.00 0.00 0.00 47 1017.6
20260503223411 6 0.0 0.0 0.00 0.00 0.00 46 1017.8
20260503222827 6 0.0 0.0 0.00 0.00 0.00 46 1017.8
20260503222243 6 0.0 0.0 0.00 0.00 0.00 46 1017.9
20260503221650 6 0.0 0.0 0.00 0.00 0.00 46 1017.9
20260503221057 6 0.0 0.0 0.00 0.00 0.00 46 1018.0
20260503215945 6 0.0 0.0 0.00 0.00 0.00 46 1018.2
20260503215401 6 0.0 0.0 0.00 0.00 0.00 45 1018.3
20260503214808 6 0.0 0.0 0.00 0.00 0.00 45 1018.3
20260503214222 6 0.0 0.0 0.00 0.00 0.00 45 1018.3
20260503213638 6 0.0 0.0 0.00 0.00 0.00 45 1018.4
20260503213045 6 0.0 0.0 0.00 0.00 0.00 45 1018.4
20260503211924 7 0.0 0.0 0.00 0.00 0.00 44 1018.5
20260503210802 7 0.0 0.0 0.00 0.00 0.00 43 1018.5
20260503210218 7 0.0 0.0 0.00 0.00 0.00 43 1018.5
20260503205626 7 0.0 0.0 0.00 0.00 0.00 43 1018.6
20260503205034 7 0.0 0.0 0.00 0.00 0.00 43 1018.6
20260503204449 7 0.0 0.0 0.00 0.00 0.00 44 1018.6
20260503203904 7 0.0 0.0 0.00 0.00 0.00 43 1018.6
20260503203319 7 0.0 0.0 0.00 0.00 0.00 43 1018.7